Regional Weather Roundup
Issued by NWS

Home | Current Version | Previous Version | Text Only | Print | Product List | Glossary On
Versions: 1 2 3 4 5 6 7 8 9 10 11 12 13 14 15 16 17 18 19 20 21 22 23 24 25 26 27 28 29 30 31 32 33 34 35 36 37 38 39 40 41 42 43 44 45 46 47 48 49 50
965
ASUS43 KFSD 080510
RWRSD

WEATHER ROUNDUP FOR SOUTH DAKOTA
NATIONAL WEATHER SERVICE SIOUX FALLS SD
1100 PM CST WED DEC 07 2016

NOTE: "FAIR" INDICATES FEW OR NO CLOUDS BELOW 12,000 FEET WITH NO
SIGNIFICANT WEATHER AND/OR OBSTRUCTIONS TO VISIBILITY.


SDZ001>005-009-010-012>017-080600-
NORTHWEST AND NORTH CENTRAL SOUTH DAKOTA

CITY           SKY/WX    TMP DP  RH WIND       PRES   REMARKS
BUFFALO          N/A      2  -5  72 NW21      30.41R WCI -20
FAITH            N/A      1  -4  79 NW24      30.46R WCI -22
MOBRIDGE       CLOUDY     5  -3  69 NW24G31   30.44R WCI -17
$$

SDZ012>016-024>037-041>051-057-063-072>074-080600-
SOUTHWEST AND SOUTH CENTRAL SOUTH DAKOTA

CITY           SKY/WX    TMP DP  RH WIND       PRES   REMARKS
RAPID CTY ARPT CLEAR      3  -5  69 NW15      30.48R WCI -16
PIERRE         MIX PCPN   7  -1  70 NW25G37   30.49R WCI -15
CUSTER         CLEAR     -2 -12  62 NW5       30.26R WCI -12
ELLSWORTH AFB  CLEAR      5  -5  63 N18       30.46R WCI -15
PHILIP         CLEAR      6  -3  66 NW21G29   30.53R WCI -14
PINE RIDGE     CLEAR     -7 -11  83 CALM      30.48R
SPEARFISH      FAIR       3  -8  60 W13G21    30.45S WCI -14
WINNER         FAIR       8  -1  66 NW17G26   30.49R WCI -10
$$

SDZ004>011-016>023-039-040-080600-
NORTHEAST SOUTH DAKOTA

CITY           SKY/WX    TMP DP  RH WIND       PRES   REMARKS
ABERDEEN       FLURRIES  10   2  69 NW22G32   30.38R WCI -10
WATERTOWN      LGT SNOW   8   3  80 NW23G30   30.28R WCI -13
BROOKINGS      FLURRIES   6   2  83 NW22G30   30.29S WCI -15
SISSETON         N/A     12   7  80 NW28G35   30.26R WCI  -9
$$

SDZ017-020-022-023-036>040-048>070-080600-
SOUTHEAST SOUTH DAKOTA

CITY           SKY/WX    TMP DP  RH WIND       PRES   REMARKS
SIOUX FALLS    PTCLDY     9   3  77 NW22G31   30.36R WCI -11
HURON          MIX PCPN   7   1  76 NW23G36   30.43R WCI -14
CHAMBERLAIN    PTCLDY     9   1  71 NW22G29   30.49R WCI -11
MITCHELL       PTCLDY     9   1  70 NW20      30.46R WCI -10
YANKTON        PTCLDY   N/A N/A N/A W21G26    30.43R
$$

ABBREVIATIONS USED IN REMARKS
   TC - TEMPERATURE IN CELSIUS
  WCI - WIND CHILL INDEX
   HX - HEAT INDEX
  VSB - VISIBILITY





USA.gov is the U.S. government's official web portal to all federal, state and local government web resources and services.